Palacios, TX

8:26 AM CST on December 03, 2016 (GMT -0600)
Palacios Municipal

Weather History for KPSX - April, 2014

Change the Weather History Date:

Monday, April 14, 2014

  Actual Average Record
Temperature  
Mean Temperature 62 °F -  
Max Temperature 75 °F 77 °F 89 °F (1982)
Min Temperature 50 °F 59 °F 38 °F (1980)
Degree Days  
Heating Degree Days 4    
Growing Degree Days 12 (Base 50)    
Moisture  
Dew Point 58 °F    
Average Humidity 86    
Maximum Humidity 100    
Minimum Humidity 61    
Precipitation  
Precipitation 0.10 in - - ()
Sea Level Pressure  
Sea Level Pressure 29.85 in    
Wind  
Wind Speed 20 mph (NW)    
Max Wind Speed 34 mph    
Max Gust Speed 46 mph    
Visibility 8 miles    
Events Rain    
Averages and records for this station are not official NWS values.
T = Trace of Precipitation, MM = Missing Value Source: NWS Daily Summary

Daily Weather History Graph

Daily Weather History Graph

Search for Another Location

Airport or City:

Trip Planner

Search our weather history database for the weather conditions in past years. The results will help you decide how hot, cold, wet, or windy it might be!

Date:

Astronomy

Apr. 14, 2014 Rise Set
Actual Time 7:00 AM CDT 7:50 PM CDT
Civil Twilight 6:36 AM CDT 8:14 PM CDT
Nautical Twilight 6:07 AM CDT 8:43 PM CDT
Astronomical Twilight 5:38 AM CDT 9:12 PM CDT
Moon 7:31 PM CDT (4/14) 6:29 AM CDT (4/14)
Length of Visible Light 13h 38m
Length of Day
12h 50m
Full, 100% of the Moon is Illuminated
Apr 14
Full
Apr 15
Full
Apr 22
Last Quarter
Apr 29
New
May 6
First Quarter

Hourly Weather History & Observations

Time (CDT) Temp. Dew Point Humidity Pressure Visibility Wind Dir Wind Speed Gust Speed Precip Events Conditions
12:53 AM 73.9 °F 71.1 °F 91% 29.72 in 7.0 mi SSE 23.0 mph 29.9 mph N/A   Mostly Cloudy
1:02 AM 73.9 °F 71.1 °F 91% 29.73 in 7.0 mi SSE 19.6 mph 29.9 mph N/A   Mostly Cloudy
1:24 AM 73.9 °F 71.1 °F 91% 29.73 in 7.0 mi South 20.7 mph 28.8 mph N/A   Scattered Clouds
1:53 AM 73.9 °F 71.1 °F 91% 29.72 in 7.0 mi SSE 17.3 mph 27.6 mph N/A   Mostly Cloudy
2:21 AM 73.9 °F 71.1 °F 91% 29.73 in 7.0 mi South 17.3 mph - N/A   Mostly Cloudy
2:53 AM 73.0 °F 71.1 °F 93% 29.70 in 6.0 mi SSE 24.2 mph 29.9 mph N/A   Overcast
3:53 AM 73.4 °F 71.6 °F 94% 29.68 in 7.0 mi SSE 16.1 mph 25.3 mph N/A   Overcast
4:16 AM 73.0 °F 71.1 °F 93% 29.69 in 6.0 mi South 13.8 mph - N/A   Overcast
4:53 AM 73.0 °F 71.1 °F 93% 29.70 in 7.0 mi South 10.4 mph - N/A   Overcast
5:53 AM 73.0 °F 71.1 °F 93% 29.70 in 7.0 mi South 12.7 mph - N/A   Overcast
6:37 AM 73.0 °F 71.1 °F 93% 29.73 in 6.0 mi South 13.8 mph - N/A   Mist
6:53 AM 73.4 °F 71.6 °F 94% 29.71 in 6.0 mi South 13.8 mph - N/A   Mist
7:53 AM 73.0 °F 71.1 °F 93% 29.72 in 6.0 mi South 13.8 mph - N/A   Mist
8:53 AM 73.0 °F 71.1 °F 93% 29.75 in 6.0 mi South 13.8 mph - N/A   Mist
9:53 AM - - N/A% 29.74 in 6.0 mi South 13.8 mph - N/A   Haze
10:53 AM 73.9 °F 70.0 °F 87% 29.80 in 7.0 mi Calm Calm - N/A   Unknown
11:08 AM 73.9 °F 71.1 °F 91% 29.80 in 2.0 mi SSW 3.5 mph - 0.03 in Rain Rain
11:18 AM 73.9 °F 71.1 °F 91% 29.81 in 2.5 mi SSW 4.6 mph - 0.05 in Rain Rain
11:33 AM 73.9 °F 72.0 °F 93% 29.81 in 3.0 mi South 4.6 mph - 0.10 in Rain Light Rain
11:53 AM 70.0 °F 70.0 °F 100% 29.84 in - North - - 0.10 in   Unknown
12:25 PM 55.9 °F 53.1 °F 90% 29.87 in 10.0 mi NNW 29.9 mph 40.3 mph 0.03 in Rain Light Rain
12:53 PM 53.6 °F 50.0 °F 88% 29.91 in 10.0 mi NNW 32.2 mph 43.7 mph N/A Rain Light Rain
1:01 PM 53.1 °F 48.0 °F 83% 29.91 in 10.0 mi NNW 33.4 mph 46.0 mph N/A   Unknown
1:53 PM 53.1 °F 48.0 °F 83% 29.89 in 10.0 mi North 25.3 mph 36.8 mph N/A   Overcast
2:39 PM 52.0 °F 46.9 °F 83% 29.91 in 10.0 mi North 27.6 mph 38.0 mph N/A   Overcast
2:46 PM 52.0 °F 46.9 °F 83% 29.91 in 10.0 mi North 32.2 mph 40.3 mph N/A   Overcast
2:53 PM 52.0 °F 46.9 °F 83% 29.91 in 10.0 mi North 29.9 mph 39.1 mph N/A   Overcast
3:46 PM 51.1 °F 46.0 °F 83% 29.93 in 10.0 mi North 34.5 mph 43.7 mph 0.00 in Rain Light Rain
3:53 PM 51.1 °F 45.0 °F 80% 29.92 in 10.0 mi North 34.5 mph 44.9 mph 0.00 in Rain Light Rain
4:26 PM 51.1 °F 45.0 °F 80% 29.93 in 10.0 mi North 32.2 mph 44.9 mph 0.00 in   Overcast
4:41 PM 50.0 °F 45.0 °F 83% 29.94 in 10.0 mi North 26.5 mph 39.1 mph 0.00 in   Overcast
4:53 PM 50.0 °F 45.0 °F 83% 29.94 in 8.0 mi North 25.3 mph 34.5 mph 0.00 in Rain Light Rain
5:34 PM 50.0 °F 45.0 °F 83% 29.95 in 10.0 mi North 26.5 mph 36.8 mph 0.00 in   Overcast
5:53 PM 51.1 °F 46.0 °F 83% 29.96 in 10.0 mi North 24.2 mph 31.1 mph 0.00 in   Overcast
6:53 PM 54.0 °F 46.9 °F 77% 29.97 in 10.0 mi North 20.7 mph 31.1 mph 0.00 in   Overcast
7:53 PM 54.0 °F 43.0 °F 66% 30.01 in 10.0 mi North 26.5 mph 34.5 mph N/A   Overcast
9:53 PM 52.0 °F 41.0 °F 66% 30.11 in 10.0 mi North 24.2 mph 33.4 mph N/A   Clear
10:53 PM 52.0 °F 39.0 °F 61% 30.15 in 10.0 mi North 25.3 mph 32.2 mph N/A   Clear
11:53 PM 50.0 °F 39.0 °F 66% 30.18 in 10.0 mi North 18.4 mph - N/A   Clear